Chicopee, MA

4:28 PM EDT on September 23, 2017 (GMT -0400)
Westover Air Reserve Base / Metropolitan Airport

Weather History for KCEF - October, 2011

Change the Weather History Date:

Wednesday, October 5, 2011

  Actual Average Record
Temperature  
Mean Temperature 53 °F -  
Max Temperature 68 °F 63 °F 84 °F (2007)
Min Temperature 37 °F 40 °F 26 °F (1996)
Degree Days  
Heating Degree Days 12    
Growing Degree Days 3 (Base 50)    
Moisture  
Dew Point 44 °F    
Average Humidity 76    
Maximum Humidity 100    
Minimum Humidity 32    
Precipitation  
Precipitation 0.00 in - - ()
Sea Level Pressure  
Sea Level Pressure 30.04 in    
Wind  
Wind Speed 5 mph (NNW)    
Max Wind Speed 21 mph    
Max Gust Speed 30 mph    
Visibility 8 miles    
Events Fog    
Averages and records for this station are not official NWS values.
T = Trace of Precipitation, MM = Missing Value Source: NWS Daily Summary

Daily Weather History Graph

Daily Weather History Graph

Search for Another Location

Airport or City:

Trip Planner

Search our weather history database for the weather conditions in past years. The results will help you decide how hot, cold, wet, or windy it might be!

Date:

Astronomy

Oct. 05, 2011 Rise Set
Actual Time 6:51 AM EDT 6:25 PM EDT
Civil Twilight 6:23 AM EDT 6:53 PM EDT
Nautical Twilight 5:50 AM EDT 7:25 PM EDT
Astronomical Twilight 5:18 AM EDT 7:58 PM EDT
Moon 3:09 PM EDT (10/5) 12:28 AM EDT (10/5)
Length of Visible Light 12h 30m
Length of Day
11h 34m
Waxing Gibbous, 66% of the Moon is Illuminated
Oct 5
Waxing Gibbous
Oct 11
Full
Oct 19
Last Quarter
Oct 26
New
Nov 2
First Quarter

Hourly Weather History & Observations

Time (EDT) Temp. Dew Point Humidity Pressure Visibility Wind Dir Wind Speed Gust Speed Precip Events Conditions
12:55 AM 51.8 °F 51.3 °F 98% 29.95 in 10.0 mi NNW 5.8 mph - N/A   Clear
1:55 AM 54.1 °F 52.7 °F 95% 29.96 in 10.0 mi Calm Calm - N/A   Scattered Clouds
2:55 AM 53.8 °F 51.6 °F 92% 29.96 in 10.0 mi NW 5.8 mph - N/A   Mostly Cloudy
3:55 AM 51.1 °F 49.8 °F 95% 29.96 in 10.0 mi North 6.9 mph - N/A   Partly Cloudy
4:55 AM 50.9 °F 48.7 °F 92% 29.97 in 10.0 mi NNW 5.8 mph - N/A   Clear
5:55 AM 48.7 °F 47.1 °F 94% 29.98 in 10.0 mi WNW 4.6 mph - N/A   Clear
6:55 AM 47.1 °F 46.6 °F 98% 29.99 in 5.0 mi Calm Calm - N/A   Clear
7:07 AM 46.4 °F 46.4 °F 100% 29.99 in 2.5 mi Calm Calm - N/A   Partly Cloudy
7:08 AM 46.4 °F 46.4 °F 100% 29.99 in 2.0 mi Calm Calm - N/A   Partly Cloudy
7:09 AM 46.4 °F 46.4 °F 100% 29.99 in 1.5 mi Calm Calm - N/A   Partly Cloudy
7:10 AM 46.4 °F 46.4 °F 100% 29.99 in 1.2 mi Calm Calm - N/A   Partly Cloudy
7:11 AM 46.4 °F 44.6 °F 93% 29.99 in 1.0 mi Calm Calm - N/A   Scattered Clouds
7:12 AM 46.4 °F 44.6 °F 93% 29.99 in 0.8 mi Calm Calm - N/A   Scattered Clouds
7:18 AM 46.4 °F 46.4 °F 100% 29.99 in 1.0 mi Calm Calm - N/A   Scattered Clouds
7:19 AM 46.4 °F 46.4 °F 100% 29.99 in 7.0 mi SSE 1.2 mph - N/A Fog Shallow Fog
7:55 AM 48.6 °F 48.0 °F 98% 30.00 in 10.0 mi Calm Calm - N/A   Scattered Clouds
8:55 AM 55.9 °F 49.3 °F 78% 30.02 in 10.0 mi NNW 8.1 mph - N/A   Overcast
9:55 AM 57.7 °F 50.7 °F 77% 30.02 in 10.0 mi North 8.1 mph - N/A   Mostly Cloudy
10:55 AM 62.1 °F 51.3 °F 68% 30.02 in 10.0 mi NNW 8.1 mph - N/A   Scattered Clouds
11:55 AM 65.1 °F 49.1 °F 56% 30.02 in 10.0 mi WNW 12.7 mph - N/A   Partly Cloudy
12:55 PM 67.3 °F 44.4 °F 44% 30.01 in 10.0 mi NNW 12.7 mph 25.3 mph N/A   Clear
1:55 PM 66.2 °F 41.0 °F 40% 29.99 in 10.0 mi NNW 11.5 mph 18.4 mph N/A   Scattered Clouds
2:55 PM 67.8 °F 42.4 °F 40% 30.01 in 10.0 mi North 11.5 mph 19.6 mph N/A   Clear
3:55 PM 65.3 °F 41.5 °F 42% 30.02 in 10.0 mi North 16.1 mph 25.3 mph N/A   Partly Cloudy
4:55 PM 63.9 °F 33.4 °F 32% 30.06 in 10.0 mi North 20.7 mph 29.9 mph N/A   Clear
5:55 PM 60.3 °F 30.4 °F 32% 30.11 in 10.0 mi North 13.8 mph 24.2 mph N/A   Clear
6:55 PM 56.1 °F 27.7 °F 34% 30.16 in 10.0 mi NNE 13.8 mph - N/A   Clear
7:55 PM 53.1 °F 30.4 °F 42% 30.20 in 10.0 mi North 10.4 mph 18.4 mph N/A   Clear
8:55 PM 50.9 °F 31.6 °F 48% 30.23 in 10.0 mi NNE 9.2 mph - N/A   Clear
9:55 PM 46.9 °F 33.1 °F 59% 30.25 in 10.0 mi Calm Calm - N/A   Clear
10:55 PM 39.7 °F 36.7 °F 89% 30.26 in 10.0 mi Calm Calm - N/A   Clear
11:55 PM 37.8 °F 36.5 °F 95% 30.27 in 10.0 mi Calm Calm - N/A   Clear